Flag for U.S.A. Weather past 2 weeks in Little Rock, Arkansas, U.S.A.

Now
47 °F

Mostly cloudy.


Feels Like: 43 °F
Forecast: 38 / 53 °F
Wind: 8 mph from Northeast

Location: Adams Field

Current Time: Mar 28, 2015 at 1:09:16 AM

Latest Report: Mar 27, 2015 at 11:53 PM


Visibility: 10 mi

Pressure: 30.20 "Hg

Humidity: 48%

Dew point: 28 °F

Location of Little RockLocation

Historic Weather in Little Rock — Graph

°F

Little Rock temperature yesterday

Maximum temperature yesterday: 57 °F (at 3:53 PM)
Minimum temperature yesterday: 41 °F (at 2:53 AM)
Average temperature yesterday: 48 °F

Past Weeks' High & Low Weather Summary

 TemperatureHumidityPressure
High81 °F (Mar 17, 2:53 PM)94% (Mar 13, 3:01 AM)30.34 "Hg (Mar 13, 3:01 AM)
Low41 °F (Mar 27, 2:53 AM)30% (Mar 27, 5:53 PM)29.81 "Hg (Mar 25, 7:53 PM)
Average58 °F72%30.08 "Hg
* Reported Mar 12 11:53 PM — Mar 27 11:53 PM, Little Rock, Weather by CustomWeather, © 2015

Note: Actual official high and low records may vary slightly from our data, if they occured in-between our weather recording intervals... More about our weather records

Advertising

Little Rock weather history for previous 24 hours

 ConditionsComfort  
Time TempWeatherWind HumidityBarometerVisibility
11:53 PM
Fri, Mar 27
47 °FMostly cloudy.8 mph48%30.20 "Hg10 mi
10:53 PM45 °FMostly cloudy.6 mph56%30.20 "Hg10 mi
9:53 PM47 °FPassing clouds.3 mph50%30.18 "Hg10 mi
8:53 PM48 °FOvercast.6 mph46%30.16 "Hg10 mi
7:53 PM49 °FPartly sunny.5 mph41%30.15 "Hg10 mi
6:53 PM53 °FPartly sunny.7 mph35%30.14 "Hg10 mi
5:53 PM55 °FScattered clouds.12 mph30%30.13 "Hg10 mi
4:53 PM55 °FScattered clouds.10 mph34%30.13 "Hg10 mi
3:53 PM57 °FBroken clouds.12 mph39%30.14 "Hg10 mi
2:53 PM52 °FBroken clouds.5 mph49%30.14 "Hg10 mi
1:53 PM54 °FBroken clouds.9 mph51%30.16 "Hg10 mi
12:53 PM48 °FLight rain. More clouds than sun.16 mph63%30.18 "Hg10 mi
11:53 AM52 °FMore clouds than sun.5 mph49%30.16 "Hg10 mi
10:53 AM50 °FOvercast.14 mph52%30.15 "Hg10 mi
9:53 AM49 °FPartly sunny.12 mph59%30.12 "Hg10 mi
8:53 AM48 °FBroken clouds.9 mph61%30.11 "Hg10 mi
7:53 AM45 °FPassing clouds.No wind71%30.10 "Hg10 mi
6:53 AM42 °FPassing clouds.No wind76%30.09 "Hg10 mi
5:53 AM43 °FPassing clouds.5 mph71%30.08 "Hg10 mi
4:53 AM46 °FOvercast.3 mph66%30.07 "Hg10 mi
3:53 AM43 °FPassing clouds.No wind82%30.07 "Hg10 mi
2:53 AM41 °FPassing clouds.No wind86%30.04 "Hg10 mi
1:53 AM42 °FClear.No wind76%30.07 "Hg10 mi
Weather by CustomWeather, © 2015

See weather overviewHow to use our weather pages